| time (UTC) | temp C | wind direction | speed KPH | gust KPH | rain 1hr cm | rain 24hr cm | rain mn cm | humidity % | barometer mb |
| 20260503194018 | 17 | 205 | 1.6 | 4.8 | 0.00 | 0.05 | 0.05 | 3 | 1007.3 |
| 20260503193018 | 17 | 192 | 8.0 | 14.5 | 0.00 | 0.05 | 0.05 | 3 | 1007.3 |
| 20260503191020 | 17 | 284 | 8.0 | 8.0 | 0.00 | 0.05 | 0.05 | 3 | 1007.4 |
| 20260503190018 | 17 | 203 | 11.3 | 11.3 | 0.00 | 0.05 | 0.05 | 3 | 1007.4 |
| 20260503185018 | 17 | 223 | 11.3 | 30.6 | 0.00 | 0.05 | 0.05 | 3 | 1007.7 |
| 20260503184021 | 17 | 252 | 17.7 | 20.9 | 0.00 | 0.05 | 0.05 | 3 | 1007.9 |
| 20260503183018 | 16 | 239 | 19.3 | 19.3 | 0.00 | 0.05 | 0.05 | 3 | 1007.9 |
| 20260503182018 | 16 | 279 | 12.9 | 12.9 | 0.00 | 0.05 | 0.05 | 3 | 1008.2 |
| 20260503181018 | 16 | 264 | 8.0 | 16.1 | 0.00 | 0.05 | 0.05 | 3 | 1008.5 |
| 20260503180018 | 16 | 253 | 20.9 | 22.5 | 0.00 | 0.05 | 0.05 | 3 | 1008.5 |
| 20260503175018 | 15 | 259 | 25.7 | 29.0 | 0.00 | 0.05 | 0.05 | 4 | 1008.8 |
| 20260503174019 | 15 | 237 | 8.0 | 14.5 | 0.00 | 0.05 | 0.05 | 4 | 1009.0 |
| 20260503173018 | 15 | 209 | 9.7 | 14.5 | 0.00 | 0.05 | 0.05 | 4 | 1009.0 |
| 20260503172019 | 15 | 263 | 27.4 | 30.6 | 0.00 | 0.05 | 0.05 | 4 | 1009.2 |
| 20260503171021 | 15 | 209 | 4.8 | 9.7 | 0.00 | 0.05 | 0.05 | 4 | 1009.6 |
| 20260503131018 | 8 | 204 | 3.2 | 4.8 | 0.00 | 0.03 | 0.03 | 5 | 1011.1 |
| 20260503081019 | -1 | 0 | 0.0 | 0.0 | 0.03 | 0.03 | 0.03 | 8 | 1012.1 |
| 20260503072019 | -1 | 0 | 0.0 | 0.0 | 0.00 | 0.00 | 0.00 | 8 | 1012.2 |
| 20260503071020 | -1 | 0 | 0.0 | 0.0 | 0.00 | 0.00 | 0.00 | 8 | 1012.3 |
| 20260503055021 | 0 | 0 | 0.0 | 1.6 | 0.00 | 0.00 | 0.00 | 7 | 1012.8 |
| 20260503054019 | 1 | 0 | 0.0 | 1.6 | 0.00 | 0.00 | 0.00 | 7 | 1012.8 |
| 20260503053019 | 1 | 0 | 0.0 | 0.0 | 0.00 | 0.00 | 0.00 | 7 | 1012.8 |
| 20260503052018 | 1 | 0 | 0.0 | 0.0 | 0.00 | 0.00 | 0.00 | 7 | 1012.8 |
| 20260503051019 | 1 | 0 | 0.0 | 0.0 | 0.00 | 0.00 | 0.00 | 7 | 1012.8 |
| 20260503050018 | 1 | 0 | 0.0 | 0.0 | 0.00 | 0.00 | 0.00 | 7 | 1012.8 |
| 20260503045019 | 1 | 0 | 0.0 | 0.0 | 0.00 | 0.00 | 0.00 | 7 | 1012.9 |
| 20260503044019 | 1 | 0 | 0.0 | 0.0 | 0.00 | 0.00 | 0.00 | 7 | 1012.9 |
| 20260503043021 | 1 | 0 | 0.0 | 0.0 | 0.00 | 0.00 | 0.00 | 7 | 1012.9 |
| 20260503042018 | 1 | 247 | 1.6 | 1.6 | 0.00 | 0.00 | 0.00 | 7 | 1013.0 |
| 20260503041018 | 1 | 0 | 0.0 | 1.6 | 0.00 | 0.00 | 0.00 | 7 | 1013.2 |
| 20260503040020 | 1 | 247 | 1.6 | 1.6 | 0.00 | 0.00 | 0.00 | 7 | 1013.2 |
| 20260503035019 | 1 | 247 | 1.6 | 1.6 | 0.00 | 0.00 | 0.00 | 7 | 1013.2 |
| 20260503034021 | 1 | 0 | 0.0 | 0.0 | 0.00 | 0.00 | 0.00 | 7 | 1013.2 |
| 20260503033019 | 1 | 247 | 1.6 | 1.6 | 0.00 | 0.00 | 0.00 | 7 | 1013.2 |
| 20260503032019 | 1 | 247 | 1.6 | 3.2 | 0.00 | 0.00 | 0.00 | 7 | 1013.3 |
| 20260503031019 | 2 | 0 | 0.0 | 0.0 | 0.00 | 0.00 | 0.00 | 7 | 1013.3 |
| 20260503030019 | 2 | 0 | 0.0 | 0.0 | 0.00 | 0.00 | 0.00 | 7 | 1013.3 |
| 20260503025020 | 2 | 0 | 0.0 | 0.0 | 0.00 | 0.00 | 0.00 | 7 | 1013.3 |
| 20260503024018 | 2 | 247 | 1.6 | 1.6 | 0.00 | 0.00 | 0.00 | 6 | 1013.4 |
| 20260503023019 | 2 | 0 | 0.0 | 0.0 | 0.00 | 0.00 | 0.00 | 6 | 1013.4 |
| 20260503022020 | 2 | 0 | 0.0 | 0.0 | 0.00 | 0.00 | 0.00 | 6 | 1013.4 |
| 20260503021019 | 3 | 0 | 0.0 | 0.0 | 0.00 | 0.00 | 0.00 | 6 | 1013.3 |
| 20260503020020 | 3 | 247 | 1.6 | 1.6 | 0.00 | 0.00 | 0.00 | 6 | 1013.3 |
| 20260503015019 | 3 | 0 | 0.0 | 0.0 | 0.00 | 0.00 | 0.00 | 6 | 1013.3 |
| 20260503014018 | 4 | 0 | 0.0 | 0.0 | 0.00 | 0.00 | 0.00 | 6 | 1013.2 |
| 20260503013020 | 5 | 0 | 0.0 | 0.0 | 0.00 | 0.00 | 0.00 | 5 | 1013.2 |
| 20260503012020 | 5 | 0 | 0.0 | 0.0 | 0.00 | 0.00 | 0.00 | 5 | 1013.2 |
| 20260503011019 | 6 | 0 | 0.0 | 0.0 | 0.00 | 0.00 | 0.00 | 5 | 1013.2 |
| 20260503010019 | 6 | 0 | 0.0 | 0.0 | 0.00 | 0.00 | 0.00 | 5 | 1013.2 |
| 20260503005020 | 6 | 247 | 1.6 | 1.6 | 0.00 | 0.00 | 0.00 | 5 | 1013.2 |
| 20260503004020 | 7 | 0 | 0.0 | 0.0 | 0.00 | 0.00 | 0.00 | 5 | 1013.1 |
| 20260503003019 | 7 | 0 | 0.0 | 1.6 | 0.00 | 0.00 | 0.00 | 4 | 1013.1 |
| 20260503002020 | 8 | 247 | 4.8 | 4.8 | 0.00 | 0.00 | 0.00 | 4 | 1013.0 |
| 20260503001021 | 8 | 257 | 1.6 | 1.6 | 0.00 | 0.00 | 0.00 | 4 | 1013.0 |
| 20260503000018 | 8 | 255 | 4.8 | 4.8 | 0.00 | 0.00 | 0.00 | 4 | 1013.0 |
| 20260502235021 | 8 | 293 | 6.4 | 8.0 | 0.00 | 0.00 | 0.00 | 4 | 1013.0 |
| 20260502234018 | 8 | 281 | 3.2 | 4.8 | 0.00 | 0.00 | 0.00 | 4 | 1013.1 |
| 20260502233021 | 8 | 273 | 3.2 | 3.2 | 0.00 | 0.00 | 0.00 | 4 | 1013.1 |
| 20260502232021 | 8 | 306 | 4.8 | 4.8 | 0.00 | 0.00 | 0.00 | 4 | 1013.2 |
| 20260502231019 | 8 | 296 | 4.8 | 6.4 | 0.00 | 0.00 | 0.00 | 4 | 1013.2 |
| 20260502230020 | 8 | 300 | 11.3 | 11.3 | 0.00 | 0.00 | 0.00 | 4 | 1013.2 |
| 20260502225018 | 8 | 302 | 3.2 | 8.0 | 0.00 | 0.00 | 0.00 | 4 | 1013.2 |
| 20260502224020 | 8 | 319 | 4.8 | 8.0 | 0.00 | 0.00 | 0.00 | 4 | 1013.2 |
| 20260502223019 | 8 | 274 | 9.7 | 11.3 | 0.00 | 0.00 | 0.00 | 4 | 1013.2 |
| 20260502222019 | 8 | 272 | 4.8 | 6.4 | 0.00 | 0.00 | 0.00 | 4 | 1013.2 |
| 20260502221020 | 8 | 286 | 4.8 | 4.8 | 0.00 | 0.00 | 0.00 | 4 | 1013.2 |
| 20260502220018 | 8 | 294 | 11.3 | 11.3 | 0.00 | 0.00 | 0.00 | 4 | 1013.2 |
| 20260502215020 | 8 | 300 | 12.9 | 14.5 | 0.00 | 0.00 | 0.00 | 4 | 1013.2 |
| 20260502214018 | 8 | 308 | 9.7 | 12.9 | 0.00 | 0.00 | 0.00 | 4 | 1013.2 |
| 20260502213021 | 8 | 318 | 4.8 | 9.7 | 0.00 | 0.00 | 0.00 | 4 | 1013.2 |
| 20260502212019 | 8 | 267 | 11.3 | 11.3 | 0.00 | 0.00 | 0.00 | 4 | 1013.3 |
| 20260502211020 | 8 | 288 | 12.9 | 14.5 | 0.00 | 0.00 | 0.00 | 4 | 1013.4 |
| 20260502210020 | 8 | 321 | 9.7 | 12.9 | 0.00 | 0.00 | 0.00 | 4 | 1013.4 |
| 20260502205020 | 8 | 277 | 9.7 | 9.7 | 0.00 | 0.00 | 0.00 | 4 | 1013.3 |
| 20260502204018 | 8 | 276 | 4.8 | 6.4 | 0.00 | 0.00 | 0.00 | 4 | 1013.5 |
| 20260502203022 | 8 | 284 | 9.7 | 9.7 | 0.00 | 0.00 | 0.00 | 4 | 1013.5 |
| 20260502202019 | 8 | 279 | 4.8 | 6.4 | 0.00 | 0.00 | 0.00 | 4 | 1013.6 |
| 20260502201019 | 8 | 284 | 4.8 | 6.4 | 0.00 | 0.00 | 0.00 | 4 | 1013.8 |
| 20260502200018 | 8 | 300 | 3.2 | 3.2 | 0.00 | 0.00 | 0.00 | 4 | 1013.8 |
| 20260502195020 | 8 | 332 | 4.8 | 6.4 | 0.00 | 0.00 | 0.00 | 4 | 1013.8 |